Time,TemperatureF,DewpointF,PressureIn,WindDirection,WindDirectionDegrees,WindSpeedMPH,WindSpeedGustMPH,Humidity,HourlyPrecipIn,Conditions,Clouds,dailyrainin,SolarRadiationWatts/m^2,SoftwareType,DateUTC
2013-02-19 00:01:00,66.0,51.0,-100.00,ENE,75,22.0,37.0,58,0.00,,,0.00,1.000000,,2013-02-19 10:01:00,
2013-02-19 00:11:00,66.0,51.0,-100.00,ENE,75,22.0,37.0,58,0.00,,,0.00,1.000000,,2013-02-19 10:11:00,
2013-02-19 00:21:00,66.0,51.0,-100.00,ENE,75,22.0,37.0,58,0.00,,,0.00,1.000000,,2013-02-19 10:21:00,
2013-02-19 00:31:00,66.0,51.0,-100.00,ENE,75,22.0,37.0,58,0.00,,,0.00,1.000000,,2013-02-19 10:31:00,
2013-02-19 01:01:00,66.0,51.0,-100.00,East,99,18.0,35.0,58,0.00,,,0.00,1.000000,,2013-02-19 11:01:00,
2013-02-19 01:11:00,66.0,51.0,-100.00,East,99,18.0,35.0,58,0.00,,,0.00,1.000000,,2013-02-19 11:11:00,
2013-02-19 01:21:00,66.0,51.0,-100.00,East,99,18.0,35.0,58,0.00,,,0.00,1.000000,,2013-02-19 11:21:00,
2013-02-19 01:31:00,66.0,51.0,-100.00,East,99,18.0,35.0,58,0.00,,,0.00,1.000000,,2013-02-19 11:31:00,
2013-02-19 02:01:00,66.0,53.0,-100.00,East,84,19.0,38.0,64,0.00,,,0.00,1.000000,,2013-02-19 12:01:00,
2013-02-19 02:12:00,66.0,53.0,-100.00,East,84,19.0,38.0,64,0.00,,,0.00,1.000000,,2013-02-19 12:12:00,
2013-02-19 02:21:00,66.0,53.0,-100.00,East,84,19.0,38.0,64,0.00,,,0.00,1.000000,,2013-02-19 12:21:00,
2013-02-19 02:32:00,66.0,53.0,-100.00,East,84,19.0,38.0,64,0.00,,,0.00,1.000000,,2013-02-19 12:32:00,
2013-02-19 03:02:00,66.0,54.0,-100.00,ENE,78,21.0,40.0,65,0.00,,,0.00,1.000000,,2013-02-19 13:02:00,
2013-02-19 03:11:00,66.0,54.0,-100.00,ENE,78,21.0,40.0,65,0.00,,,0.00,1.000000,,2013-02-19 13:11:00,
2013-02-19 03:22:00,66.0,54.0,-100.00,ENE,78,21.0,40.0,65,0.00,,,0.00,1.000000,,2013-02-19 13:22:00,
2013-02-19 03:31:00,66.0,54.0,-100.00,ENE,78,21.0,40.0,65,0.00,,,0.00,1.000000,,2013-02-19 13:31:00,
2013-02-19 04:01:00,67.0,54.0,-100.00,East,91,23.0,36.0,62,0.00,,,0.00,1.000000,,2013-02-19 14:01:00,
2013-02-19 04:11:00,67.0,54.0,-100.00,East,91,23.0,36.0,62,0.00,,,0.00,1.000000,,2013-02-19 14:11:00,
2013-02-19 04:21:00,67.0,54.0,-100.00,East,91,23.0,36.0,62,0.00,,,0.00,1.000000,,2013-02-19 14:21:00,
2013-02-19 04:32:00,67.0,54.0,-100.00,East,91,23.0,36.0,62,0.00,,,0.00,1.000000,,2013-02-19 14:32:00,
2013-02-19 05:01:00,66.0,55.0,-100.00,ENE,70,22.0,31.0,68,0.00,,,0.00,1.000000,,2013-02-19 15:01:00,
2013-02-19 05:11:00,66.0,55.0,-100.00,ENE,70,22.0,31.0,68,0.00,,,0.00,1.000000,,2013-02-19 15:11:00,
2013-02-19 05:21:00,66.0,55.0,-100.00,ENE,70,22.0,31.0,68,0.00,,,0.00,1.000000,,2013-02-19 15:21:00,
2013-02-19 05:31:00,66.0,55.0,-100.00,ENE,70,22.0,31.0,68,0.00,,,0.00,1.000000,,2013-02-19 15:31:00,
2013-02-19 06:01:00,66.0,54.0,-100.00,East,85,21.0,33.0,66,0.00,,,0.00,1.000000,,2013-02-19 16:01:00,
2013-02-19 06:11:00,66.0,54.0,-100.00,East,85,21.0,33.0,66,0.00,,,0.00,1.000000,,2013-02-19 16:11:00,
2013-02-19 06:21:00,66.0,54.0,-100.00,East,85,21.0,33.0,66,0.00,,,0.00,1.000000,,2013-02-19 16:21:00,
2013-02-19 06:31:00,66.0,54.0,-100.00,East,85,21.0,33.0,66,0.00,,,0.00,1.000000,,2013-02-19 16:31:00,
2013-02-19 07:01:00,66.0,52.0,-100.00,East,83,22.0,42.0,60,0.00,,,0.00,1.000000,,2013-02-19 17:01:00,
2013-02-19 07:11:00,66.0,52.0,-100.00,East,83,22.0,42.0,60,0.00,,,0.00,1.000000,,2013-02-19 17:11:00,
2013-02-19 07:21:00,66.0,52.0,-100.00,East,83,22.0,42.0,60,0.00,,,0.00,1.000000,,2013-02-19 17:21:00,
2013-02-19 07:31:00,66.0,52.0,-100.00,East,83,22.0,42.0,60,0.00,,,0.00,1.000000,,2013-02-19 17:31:00,
2013-02-19 08:01:00,67.0,54.0,-100.00,ENE,68,23.0,36.0,63,0.00,,,0.00,36.000000,,2013-02-19 18:01:00,
2013-02-19 08:11:00,67.0,54.0,-100.00,ENE,68,23.0,36.0,63,0.00,,,0.00,36.000000,,2013-02-19 18:11:00,
2013-02-19 08:21:00,67.0,54.0,-100.00,ENE,68,23.0,36.0,63,0.00,,,0.00,36.000000,,2013-02-19 18:21:00,
2013-02-19 08:31:00,67.0,54.0,-100.00,ENE,68,23.0,36.0,63,0.00,,,0.00,36.000000,,2013-02-19 18:31:00,
2013-02-19 09:01:00,71.0,55.0,-100.00,East,82,21.0,35.0,57,0.00,,,0.00,260.000000,,2013-02-19 19:01:00,
2013-02-19 09:11:00,71.0,55.0,-100.00,East,82,21.0,35.0,57,0.00,,,0.00,260.000000,,2013-02-19 19:11:00,
2013-02-19 09:21:00,71.0,55.0,-100.00,East,82,21.0,35.0,57,0.00,,,0.00,260.000000,,2013-02-19 19:21:00,
2013-02-19 09:31:00,71.0,55.0,-100.00,East,82,21.0,35.0,57,0.00,,,0.00,260.000000,,2013-02-19 19:31:00,
2013-02-19 10:01:00,72.0,52.0,-100.00,ENE,65,25.0,39.0,49,0.00,,,0.00,494.000000,,2013-02-19 20:01:00,
2013-02-19 10:11:00,72.0,52.0,-100.00,ENE,65,25.0,39.0,49,0.00,,,0.00,494.000000,,2013-02-19 20:11:00,
2013-02-19 10:21:00,72.0,52.0,-100.00,ENE,65,25.0,39.0,49,0.00,,,0.00,494.000000,,2013-02-19 20:21:00,
2013-02-19 10:31:00,72.0,52.0,-100.00,ENE,65,25.0,39.0,49,0.00,,,0.00,494.000000,,2013-02-19 20:31:00,
2013-02-19 11:01:00,73.0,54.0,-100.00,ENE,70,30.0,40.0,52,0.00,,,0.00,688.000000,,2013-02-19 21:01:00,
2013-02-19 11:11:00,73.0,54.0,-100.00,ENE,70,30.0,40.0,52,0.00,,,0.00,688.000000,,2013-02-19 21:11:00,
2013-02-19 11:21:00,73.0,54.0,-100.00,ENE,70,30.0,40.0,52,0.00,,,0.00,688.000000,,2013-02-19 21:21:00,
2013-02-19 11:31:00,73.0,54.0,-100.00,ENE,70,30.0,40.0,52,0.00,,,0.00,688.000000,,2013-02-19 21:31:00,
2013-02-19 12:02:00,76.0,54.0,-100.00,ENE,72,27.0,44.0,47,0.00,,,0.00,831.000000,,2013-02-19 22:02:00,
2013-02-19 12:11:00,76.0,54.0,-100.00,ENE,72,27.0,44.0,47,0.00,,,0.00,831.000000,,2013-02-19 22:11:00,
2013-02-19 12:21:00,76.0,54.0,-100.00,ENE,72,27.0,44.0,47,0.00,,,0.00,831.000000,,2013-02-19 22:21:00,
2013-02-19 12:31:00,76.0,54.0,-100.00,ENE,72,27.0,44.0,47,0.00,,,0.00,831.000000,,2013-02-19 22:31:00,
2013-02-19 13:01:00,76.0,55.0,-100.00,ENE,68,30.0,46.0,49,0.00,,,0.00,905.000000,,2013-02-19 23:01:00,
2013-02-19 13:11:00,76.0,55.0,-100.00,ENE,68,30.0,46.0,49,0.00,,,0.00,905.000000,,2013-02-19 23:11:00,
2013-02-19 13:21:00,76.0,55.0,-100.00,ENE,68,30.0,46.0,49,0.00,,,0.00,905.000000,,2013-02-19 23:21:00,
2013-02-19 13:31:00,76.0,55.0,-100.00,ENE,68,30.0,46.0,49,0.00,,,0.00,905.000000,,2013-02-19 23:31:00,
2013-02-19 14:01:00,76.0,54.0,-100.00,ENE,62,27.0,45.0,47,0.00,,,0.00,901.000000,,2013-02-20 00:01:00,
2013-02-19 14:11:00,76.0,54.0,-100.00,ENE,62,27.0,45.0,47,0.00,,,0.00,901.000000,,2013-02-20 00:11:00,
2013-02-19 14:21:00,76.0,54.0,-100.00,ENE,62,27.0,45.0,47,0.00,,,0.00,901.000000,,2013-02-20 00:21:00,
2013-02-19 14:31:00,76.0,54.0,-100.00,ENE,62,27.0,45.0,47,0.00,,,0.00,901.000000,,2013-02-20 00:31:00,
2013-02-19 15:02:00,76.0,54.0,-100.00,ENE,60,27.0,43.0,46,0.00,,,0.00,828.000000,,2013-02-20 01:02:00,
2013-02-19 15:11:00,76.0,54.0,-100.00,ENE,60,27.0,43.0,46,0.00,,,0.00,828.000000,,2013-02-20 01:11:00,
2013-02-19 15:21:00,76.0,54.0,-100.00,ENE,60,27.0,43.0,46,0.00,,,0.00,828.000000,,2013-02-20 01:21:00,
2013-02-19 15:31:00,76.0,54.0,-100.00,ENE,60,27.0,43.0,46,0.00,,,0.00,828.000000,,2013-02-20 01:31:00,
2013-02-19 16:01:00,73.0,56.0,-100.00,ENE,60,28.0,40.0,55,0.00,,,0.00,685.000000,,2013-02-20 02:01:00,
2013-02-19 16:11:00,73.0,56.0,-100.00,ENE,60,28.0,40.0,55,0.00,,,0.00,685.000000,,2013-02-20 02:11:00,
2013-02-19 16:21:00,73.0,56.0,-100.00,ENE,60,28.0,40.0,55,0.00,,,0.00,685.000000,,2013-02-20 02:21:00,
2013-02-19 16:31:00,73.0,56.0,-100.00,ENE,60,28.0,40.0,55,0.00,,,0.00,685.000000,,2013-02-20 02:31:00,
2013-02-19 17:01:00,72.0,55.0,-100.00,ENE,59,23.0,38.0,55,0.00,,,0.00,488.000000,,2013-02-20 03:01:00,
2013-02-19 17:12:00,72.0,55.0,-100.00,ENE,59,23.0,38.0,55,0.00,,,0.00,488.000000,,2013-02-20 03:12:00,
2013-02-19 17:21:00,72.0,55.0,-100.00,ENE,59,23.0,38.0,55,0.00,,,0.00,488.000000,,2013-02-20 03:21:00,
2013-02-19 17:32:00,72.0,55.0,-100.00,ENE,59,23.0,38.0,55,0.00,,,0.00,488.000000,,2013-02-20 03:32:00,
2013-02-19 18:01:00,71.0,54.0,-100.00,NE,56,20.0,33.0,55,0.00,,,0.00,260.000000,,2013-02-20 04:01:00,
2013-02-19 18:11:00,71.0,54.0,-100.00,NE,56,20.0,33.0,55,0.00,,,0.00,260.000000,,2013-02-20 04:11:00,
2013-02-19 18:21:00,71.0,54.0,-100.00,NE,56,20.0,33.0,55,0.00,,,0.00,260.000000,,2013-02-20 04:21:00,
2013-02-19 18:31:00,71.0,54.0,-100.00,NE,56,20.0,33.0,55,0.00,,,0.00,260.000000,,2013-02-20 04:31:00,
2013-02-19 19:02:00,69.0,55.0,-100.00,ENE,76,24.0,37.0,62,0.00,,,0.00,52.000000,,2013-02-20 05:02:00,
2013-02-19 19:12:00,69.0,55.0,-100.00,ENE,76,24.0,37.0,62,0.00,,,0.00,52.000000,,2013-02-20 05:12:00,
2013-02-19 19:22:00,69.0,55.0,-100.00,ENE,76,24.0,37.0,62,0.00,,,0.00,52.000000,,2013-02-20 05:22:00,
2013-02-19 19:32:00,69.0,55.0,-100.00,ENE,76,24.0,37.0,62,0.00,,,0.00,52.000000,,2013-02-20 05:32:00,
2013-02-19 20:01:00,68.0,54.0,-100.00,ENE,77,20.0,37.0,62,0.00,,,0.00,1.000000,,2013-02-20 06:01:00,
2013-02-19 20:11:00,68.0,54.0,-100.00,ENE,77,20.0,37.0,62,0.00,,,0.00,1.000000,,2013-02-20 06:11:00,
2013-02-19 20:21:00,68.0,54.0,-100.00,ENE,77,20.0,37.0,62,0.00,,,0.00,1.000000,,2013-02-20 06:21:00,
2013-02-19 20:31:00,68.0,54.0,-100.00,ENE,77,20.0,37.0,62,0.00,,,0.00,1.000000,,2013-02-20 06:31:00,
2013-02-19 21:01:00,68.0,53.0,-100.00,ENE,78,23.0,35.0,58,0.00,,,0.00,1.000000,,2013-02-20 07:01:00,
2013-02-19 21:11:00,68.0,53.0,-100.00,ENE,78,23.0,35.0,58,0.00,,,0.00,1.000000,,2013-02-20 07:11:00,
2013-02-19 21:21:00,68.0,53.0,-100.00,ENE,78,23.0,35.0,58,0.00,,,0.00,1.000000,,2013-02-20 07:21:00,
2013-02-19 21:31:00,68.0,53.0,-100.00,ENE,78,23.0,35.0,58,0.00,,,0.00,1.000000,,2013-02-20 07:31:00,
2013-02-19 22:05:00,67.0,54.0,-100.00,East,95,15.0,35.0,62,0.00,,,0.00,1.000000,,2013-02-20 08:05:00,
2013-02-19 22:11:00,67.0,54.0,-100.00,East,95,15.0,35.0,62,0.00,,,0.00,1.000000,,2013-02-20 08:11:00,
2013-02-19 22:21:00,67.0,54.0,-100.00,East,95,15.0,35.0,62,0.00,,,0.00,1.000000,,2013-02-20 08:21:00,
2013-02-19 22:31:00,67.0,54.0,-100.00,East,95,15.0,35.0,62,0.00,,,0.00,1.000000,,2013-02-20 08:31:00,
2013-02-19 23:01:00,67.0,56.0,-100.00,ENE,71,15.0,31.0,67,0.00,,,0.00,1.000000,,2013-02-20 09:01:00,
2013-02-19 23:11:00,67.0,56.0,-100.00,ENE,71,15.0,31.0,67,0.00,,,0.00,1.000000,,2013-02-20 09:11:00,
2013-02-19 23:21:00,67.0,56.0,-100.00,ENE,71,15.0,31.0,67,0.00,,,0.00,1.000000,,2013-02-20 09:21:00,
2013-02-19 23:31:00,67.0,56.0,-100.00,ENE,71,15.0,31.0,67,0.00,,,0.00,1.000000,,2013-02-20 09:31:00,